"Pseudo-MPEC" for C3ZR992

Created 2020 Nov 23 7:07:16 UT using Find_Orb

Click here for an explanation of pseudo-MPECs

 
 Astrometry: 
     C3ZR992  C2020 11 21.19352102 44 52.61 +43 54 35.4    ~BL5b 21.04GVNEOCPG96
     C3ZR992  C2020 11 21.19860802 44 54.75 +43 53 59.6    ~BL5b 21.21GVNEOCPG96
     C3ZR992  C2020 11 21.20369802 44 56.73 +43 53 25.2    ~BL5b 20.81GVNEOCPG96
     C3ZR992  C2020 11 21.20878202 44 58.87 +43 52 49.8    ~BL5b 20.88GVNEOCPG96
     C3ZR992 KC2020 11 21.23192102 45 08.14 +43 50 08.4    ~BL5q 20.86GVNEOCPI52
     C3ZR992 KC2020 11 21.23422302 45 09.07 +43 49 52.7    ~BL5q 20.36GVNEOCPI52
     C3ZR992 KC2020 11 21.23652502 45 09.98 +43 49 36.0    ~BL5q 20.64GVNEOCPI52
     C3ZR992 KC2020 11 21.30539802 45 37.73 +43 41 26.0    ~BL7b 20.36GVNEOCPI52
     C3ZR992 KC2020 11 21.30770002 45 38.67 +43 41 09.5    ~BL7b       VNEOCPI52
     C3ZR992 1C2020 11 21.71749 02 48 53.94 +42 50 44.5    ~BLJq 21.7 VVNEOCP033
     C3ZR992 1C2020 11 21.77804 02 49 20.33 +42 43 32.4    ~BLJq 21.8 VVNEOCP033
     C3ZR992 1C2020 11 21.78385 02 49 22.86 +42 42 51.1    ~BLJq 22.2 VVNEOCP033
     C3ZR992 1C2020 11 21.78585 02 49 23.71 +42 42 36.7    ~BLJq 21.8 VVNEOCP033
     C3ZR992 bC2020 11 215JUha7r,b.:A_L8iora2M?!Cu-GLuRDFafax_m`Ga[,gsO\F7HsVL01
     C3ZR992 bC2020 11 21J,W=H)lT(lonSn-.T;j;(=Dc[g\lkRRHoT,c4bX(p6J5DfY9Hv^AL01
     C3ZR992 bC2020 11 21`?bveSOqUxLa:5OWmXMNHw=F=v`@LDaf=#c]V8T16M+;bc4i7\fTL01
     C3ZR992 KC2020 11 21]^*C$VAew^B`AxRPcBVjMLmii'2y4!7rx;(?Z%WeST=)=:9bgeU1204
     C3ZR992 KC2020 11 22.6C4Tv/3t-(#b\8dHAstrometrykredacted;?N6Ygx!--f;Cc*R204
     C3ZR992 KC2020 11 22.14380502 52 08.04 +41 58 22.2    ~BM3q       VNEOCPI52
     C3ZR992 KC2020 11 22.14633002 52 09.07 +41 58 03.4    ~BM3q       VNEOCPI52
     C3ZR992 KC2020 11 22.14885302 52 10.09 +41 57 44.4    ~BM3q 22.89GVNEOCPI52
     C3ZR992  C2020 11 22.19672202 52 29.80 +41 51 48.3    ~BM5q 20.42GVNEOCPG96
     C3ZR992  C2020 11 22.20701202 52 34.03 +41 50 30.6    ~BM5q 20.90GVNEOCPG96
     C3ZR992  C2020 11 22.21215102 52 36.15 +41 49 51.7    ~BM5q 20.79GVNEOCPG96
     C3ZR992 KC2020 11 23.17026602 59 56.44 +39 42 18.2    ~BN4b 21.14GVNEOCPI52
     C3ZR992 KC2020 11 23.17698902 59 59.18 +39 41 23.4    ~BN4b 20.92GVNEOCPI52
     C3ZR992 KC2020 11 23:,aM[IV8Ortg]v2Up`E)(C^5*JPNh4(uA/Vj?Ht8v;usN*ihPLJMH36
     C3ZR992 KC2020 11 231_X[j`I$@+Sa;click/,Z1r.AG[IR$l\PchereaVAw[X!,2=!AI[H36
     C3ZR992 KC2020 11 23-O.;JUPNaTtw*6aFF\CFC%s)76*2_forf?hexplanationt49)dAH36

Station data:
(033) Karl Schwarzschild Observatory, Tautenburg  (N50.980140 E11.711240)
   Germany. 1.3-m Schmidt.
(204) Schiaparelli Observatory  (N45.867933 E8.770800)  Italy.  Observer L.
   Buzzi. 0.60-m f/4.64 Newtonian + CCD.
(G96) Mt. Lemmon Survey  (N32.442754 W110.788720)  US/Arizona.  Observers T.
   A. Pruyne, B. M. Africano, E. J. Christensen, G. A. Farneth, D. C. Fuls,
   A. R. Gibbs, A. D. Grauer, H. Gröller, J. A. Johnson, R. A. Kowalski, S.
   M. Larson, G. J. Leonard, D. Rankin, R. L. Seaman, F. C. Shelly. 1.5-m
   reflector + 10K CCD.
(H36) Sandlot Observatory, Scranton  (N38.797693 W95.706400)  US/Kansas.
   Observer G. Hug. 0.56-m reflector + CCD.
(I52) Steward Observatory, Mt. Lemmon Station  (N32.442547 W110.788920)
   US/Arizona.  Observers T. A. Pruyne, B. M. Africano, E. J. Christensen, G.
   A. Farneth, D. C. Fuls, A. R. Gibbs, A. D. Grauer, H. Gröller, J. A.
   Johnson, R. A. Kowalski, S. M. Larson, G. J. Leonard, D. Rankin, R. L.
   Seaman, F. C. Shelly. 1.0-m reflector + CCD.
(L01) Višnjan Observatory, Tičan  (N45.290900 E13.749300)  Croatia.
   Observers K. Korlević, E. Pettarin. Measurer E. Pettarin. 1.0-m f/2.9
   reflector + CCD.

Orbital elements:  C3ZR992
   Perihelion 2020 Dec 8.218608 +/- 0.0218 TT =  5:14:47 (JD 2459191.718608)
Epoch 2020 Nov 23.0 TT = JDT 2459176.5   Earth MOID: 0.0664   AutoNEOCP
M 351.64930059 +/- 0.025            (J2000 ecliptic)
n   0.54871636 +/- 0.00121          Peri.  188.50659 +/- 0.024
a   1.47764726 +/- 0.00217          Node   247.45173 +/- 0.0017
e   0.2890930 +/- 0.000927          Incl.   12.69160 +/- 0.030
P   1.80/656.06d           H 25.7   G  0.15   U  8.2  
q 1.05046976 +/- 0.00018    Q 1.90482475 +/- 0.00416
From 29 observations 2020 Nov. 21-23; mean residual 0".35
Residuals in arcseconds: 
201121 G96  .26-  .46+    201121 033  .44-  .72-    201122 I52  .37-  .29-    
201121 G96  .58+  .30-    201121 033  .10-  .31-    201122 G96  .39-  .27+    
201121 G96  .29-  .44+    201121 033  .20-  .34-    201122 G96  .01+  .09+    
201121 G96  .62+  .21+    201121 L01  .31-  .56+    201122 G96  .33+  .02+    
201121 I52  .04-  .12-    201121 L01  .22+  .14-    201123 I52  .02+  .47+    
201121 I52  .00   .29+    201121 L01  .14-  .25-    201123 I52  .38-  .10+    
201121 I52  .18-  .28-    201121 204  .59+  .18-    201123 H36  .02-  .85+    
201121 I52  .13-  .15-    201122 204  .10-  .39+    201123 H36  .35-  .92-    
201121 I52  .05-  .02-    201122 I52  .22+  .25+    201123 H36  .74+  .36-    
201121 033  .20+  .02+    201122 I52  .03-  .08+    

Ephemerides (geocentric):
Date (UTC) HH   RA              Dec         delta   r     elong  mag " sig PA
---- -- -- --  -------------   -----------  ------ ------ -----  --- ---- ---
2020 11 23 07  03 00 47.541   +39 25 21.39  .07703 1.0590 157.6 21.3 .026  63
2020 11 23 08  03 01 06.604   +39 19 32.25  .07694 1.0590 157.7 21.3 .025  54
2020 11 23 09  03 01 25.666   +39 13 41.98  .07685 1.0589 157.8 21.2 .025  45
2020 11 23 10  03 01 44.727   +39 07 50.59  .07675 1.0589 157.9 21.2 .026  35
2020 11 23 11  03 02 03.787   +39 01 58.07  .07666 1.0588 158.0 21.2 .027  25
2020 11 23 12  03 02 22.845   +38 56 04.43  .07657 1.0588 158.1 21.2 .029  17
2020 11 23 13  03 02 41.902   +38 50 09.67  .07648 1.0587 158.2 21.2 .032  10
2020 11 23 14  03 03 00.958   +38 44 13.78  .07638 1.0587 158.3 21.2 .036   3
2020 11 23 15  03 03 20.012   +38 38 16.76  .07629 1.0587 158.4 21.2 .039 178
2020 11 23 16  03 03 39.064   +38 32 18.63  .07620 1.0586 158.5 21.2 .044 174
2020 11 23 17  03 03 58.114   +38 26 19.37  .07611 1.0586 158.6 21.2 .049 170
2020 11 23 18  03 04 17.162   +38 20 18.99  .07602 1.0585 158.7 21.2 .054 167
2020 11 23 19  03 04 36.208   +38 14 17.49  .07593 1.0585 158.8 21.2 .059 164
2020 11 23 20  03 04 55.252   +38 08 14.87  .07584 1.0584 158.9 21.2 .065 162
2020 11 23 21  03 05 14.293   +38 02 11.13  .07575 1.0584 159.0 21.2 .071 160
2020 11 23 22  03 05 33.332   +37 56 06.26  .07566 1.0583 159.1 21.2 .077 159
2020 11 23 23  03 05 52.368   +37 50 00.28  .07558 1.0583 159.2 21.2 .083 157
2020 11 24 00  03 06 11.401   +37 43 53.18  .07549 1.0582 159.3 21.2 .090 156
2020 11 24 01  03 06 30.431   +37 37 44.96  .07540 1.0582 159.4 21.2 .097 155
2020 11 24 02  03 06 49.458   +37 31 35.63  .07531 1.0582 159.5 21.2 .104 154
2020 11 24 03  03 07 08.482   +37 25 25.18  .07523 1.0581 159.6 21.1 .111 153
2020 11 24 04  03 07 27.503   +37 19 13.62  .07514 1.0581 159.8 21.1 .119 152
2020 11 24 05  03 07 46.520   +37 13 00.94  .07506 1.0580 159.9 21.1 .126 152
2020 11 24 06  03 08 05.533   +37 06 47.15  .07497 1.0580 160.0 21.1 .134 151
2020 11 24 07  03 08 24.543   +37 00 32.25  .07488 1.0579 160.1 21.1 .142 150
2020 11 24 08  03 08 43.549   +36 54 16.24  .07480 1.0579 160.2 21.1 .151 150
2020 11 24 09  03 09 02.551   +36 47 59.12  .07472 1.0578 160.3 21.1 .159 149
2020 11 24 10  03 09 21.549   +36 41 40.89  .07463 1.0578 160.4 21.1 .168 149
2020 11 24 11  03 09 40.543   +36 35 21.56  .07455 1.0578 160.5 21.1 .177 149
2020 11 24 12  03 09 59.532   +36 29 01.12  .07447 1.0577 160.6 21.1 .186 148
2020 11 24 13  03 10 18.517   +36 22 39.57  .07438 1.0577 160.7 21.1 .195 148
2020 11 24 14  03 10 37.497   +36 16 16.93  .07430 1.0576 160.8 21.1 .205 148
2020 11 24 15  03 10 56.473   +36 09 53.18  .07422 1.0576 160.9 21.1 .215 147
2020 11 24 16  03 11 15.444   +36 03 28.34  .07414 1.0575 161.0 21.1 .225 147
2020 11 24 17  03 11 34.409   +35 57 02.40  .07406 1.0575 161.1 21.1 .235 147
2020 11 24 18  03 11 53.370   +35 50 35.36  .07398 1.0575 161.3 21.1 .245 147
2020 11 24 19  03 12 12.325   +35 44 07.24  .07390 1.0574 161.4 21.1 .256 147
2020 11 24 20  03 12 31.275   +35 37 38.01  .07382 1.0574 161.5 21.0 .267 147
2020 11 24 21  03 12 50.220   +35 31 07.70  .07374 1.0573 161.6 21.0 .278 146
2020 11 24 22  03 13 09.159   +35 24 36.30  .07366 1.0573 161.7 21.0 .289 146
2020 11 24 23  03 13 28.092   +35 18 03.82  .07358 1.0572 161.8 21.0 .300 146
2020 11 25 00  03 13 47.019   +35 11 30.25  .07350 1.0572 161.9 21.0 .312 146
2020 11 25 01  03 14 05.941   +35 04 55.60  .07342 1.0572 162.0 21.0 .323 146
2020 11 25 02  03 14 24.856   +34 58 19.87  .07335 1.0571 162.1 21.0 .335 146
2020 11 25 03  03 14 43.765   +34 51 43.07  .07327 1.0571 162.2 21.0 .348 146
2020 11 25 04  03 15 02.668   +34 45 05.19  .07319 1.0570 162.3 21.0 .360 146
2020 11 25 05  03 15 21.564   +34 38 26.23  .07312 1.0570 162.4 21.0 .373 146
2020 11 25 06  03 15 40.454   +34 31 46.21  .07304 1.0569 162.6 21.0 .385 145